Weather Service Report


455 
ASUS43 KMKX 251420
RWRWI 

WISCONSIN REGIONAL WEATHER ROUNDUP
NATIONAL WEATHER SERVICE MILWAUKEE/SULLIVAN WI
900 AM CDT THU MAY 25 2017

NOTE: "FAIR" INDICATES FEW OR NO CLOUDS BELOW 12,000 FEET WITH NO
SIGNIFICANT WEATHER AND/OR OBSTRUCTIONS TO VISIBILITY.

WIZ001-002-006>008-014>016-023>028-251500-
NORTHWEST WISCONSIN
  
CITY           SKY/WX    TMP DP  RH WIND       PRES   REMARKS
SUPERIOR ARPT  NOT AVBL                                               
ASHLAND        SUNNY     52  46  80 VRB3      29.77S                  
HAYWARD        SUNNY     59  45  59 E6        29.74S                  
SIREN          CLOUDY    54  48  79 CALM      29.74S                  
CUMBERLAND     CLOUDY    54  48  82 CALM      29.74S                  
RICE LAKE      SUNNY     57  48  73 CALM      29.75S                  
CHETEK         SUNNY     58  49  72 CALM      29.74S                  
LADYSMITH      PTSUNNY   57  49  75 CALM      29.75F                  
EAU CLAIRE     MOSUNNY   59  49  69 E5        29.73R                  
MENOMONIE      SUNNY     58  50  75 CALM      29.74R                  
NEW RICHMOND   CLOUDY    57  50  79 SE5       29.73F                  
OSCEOLA        SUNNY     58  50  74 SE6       29.76S                  
$$
 
WIZ003>005-009-010-017-018-251500-
NORTH CENTRAL WISCONSIN
  
CITY           SKY/WX    TMP DP  RH WIND       PRES   REMARKS
MANITOWISH WTR SUNNY     56  48  74 E6        29.75S                  
ARBOR VITAE    SUNNY     57  47  70 E5        29.73F                  
WOODRUFF       SUNNY     57  47  70 E5        29.73F                  
RHINELANDER    SUNNY     58  47  66 E7        29.74S                  
EAGLE RIVER    SUNNY     58  45  62 E5        29.74S                  
LAND O LAKES   CLOUDY    56  46  70 CALM      29.77S                  
PHILLIPS       SUNNY     56  49  78 E6        29.73S                  
TOMAHAWK       SUNNY     57  47  71 E3        29.73F                  
MEDFORD        SUNNY     57  50  78 NE6       29.72S                  
MERRILL        SUNNY     58  51  75 E8        29.72F                  
$$
 
WIZ029-030-035-036-043>047-251500-
CENTRAL WISCONSIN
  
CITY           SKY/WX    TMP DP  RH WIND       PRES   REMARKS
WAUSAU         SUNNY     59  50  72 E7        29.69F                  
MOSINEE        NOT AVBL                                               
MARSHFIELD     SUNNY     58  50  75 E5        29.70S                  
STEVENS POINT  SUNNY     57  50  79 E10       29.70F                  
WAUPACA        SUNNY     60  51  73 N7        29.70S                  
WAUTOMA        SUNNY     57  51  80 NE9       29.69S                  
WISC RAPIDS    SUNNY     60  50  69 NE8       29.71S                  
CAMP DOUGLAS   PTSUNNY   57  50  77 CALM      29.70S                  
$$
 
WIZ011>013-019>022-031-037>040-048>050-251500-
NORTHEAST WISCONSIN
  
CITY           SKY/WX    TMP DP  RH WIND       PRES   REMARKS
ANTIGO         SUNNY     57  51  80 NE6       29.72F                  
SHAWANO        SUNNY     60  51  71 NE7       29.71S                  
OCONTO         SUNNY     58  50  73 N8        29.69S                  
STURGEON BAY   MOSUNNY   57  51  80 N7        29.69R                  
GREEN BAY      MOSUNNY   58  53  84 NE14      29.69R                  
MANITOWOC      PTSUNNY   58  51  78 N12       29.67R                  
APPLETON       MOSUNNY   55  52  88 N13       29.67S                  
CLINTONVILLE   SUNNY     57  50  77 NE10      29.70R                  
OSHKOSH        CLOUDY    55  50  83 NE9       29.67F                  
$$
 
WIZ032>034-041-042-053>061-251500-
SOUTHWEST WISCONSIN
  
CITY           SKY/WX    TMP DP  RH WIND       PRES   REMARKS
LA CROSSE      CLOUDY    56  52  86 NW7       29.73R                  
SPARTA         CLOUDY    54  50  88 N3        29.73R                  
VIROQUA        CLOUDY    53  50  87 MISG      29.71S                  
BOSCOBEL       CLOUDY    57  50  77 VRB5      29.71R                  
PRAIRIE DU CHI CLOUDY    55  48  77 NW6       29.71S                  
PLATTEVILLE    CLOUDY    54  53  96 N7        29.70S                  
$$

WIZ056-057-062-063-064-067-068-251500-
SOUTH CENTRAL WISCONSIN
  
CITY           SKY/WX    TMP DP  RH WIND       PRES   REMARKS
REEDSBURG      CLOUDY    53  52  96 N6        29.70R                  
BARABOO/DELLS  CLOUDY    53  49  85 NW5       29.70R                  
LONE ROCK      CLOUDY    55  49  80 N6        29.71R                  
MINERAL POINT  CLOUDY    54  54 100 N7        29.70R                  
MADISON        CLOUDY    54  50  86 N10       29.67R                  
MIDDLETON      CLOUDY    54  52  90 N5        29.70R                  
WATERTOWN      CLOUDY    53  53  97 N10       29.66S                  
MONROE         CLOUDY    54  50  87 N9        29.68R                  
JANESVILLE     CLOUDY    55  54  94 N14       29.65S                  
$$
 
WIZ051-052-058>065-066-070>072-251500-
SOUTHEAST WISCONSIN
  
CITY           SKY/WX    TMP DP  RH WIND       PRES   REMARKS
MILWAUKEE      CLOUDY    57  52  83 N9        29.64R                  
WAUKESHA       CLOUDY    52  50  93 NW9       29.66R                  
MILWAUKEE/TIMM CLOUDY    55  48  76 N12       29.65R                  
RACINE         CLOUDY    56  50  80 N9        29.64R                  
KENOSHA        CLOUDY    56  51  84 N12       29.63R                  
FOND DU LAC    CLOUDY    54  49  83 N10       29.68R                  
SHEBOYGAN      PTSUNNY   58  53  84 N10       29.66R                  
WEST BEND      CLOUDY    54  52  94 N9        29.65S                  
JUNEAU         CLOUDY    52  50  92 N7        29.69R                  
$$

LSZ147-162-251500-
LAKE SUPERIOR
  
STATION/POSITION TIME  TEMP    WIND        PRES    WAVE
                       AIR SEA DIR/SP/G            HT/PER
                 (UTC) (F)     (DEG/KT/KT) (MB)    (FT/S)
$$
 
LMZ867-665-643>646-251500-
LAKE MICHIGAN
  
STATION/POSITION TIME  TEMP    WIND        PRES    WAVE
                       AIR SEA DIR/SP/G            HT/PER
                 (UTC) (F)     (DEG/KT/KT) (MB)    (FT/S)
$$

TC  - TEMPERATURE IN CELSIUS
VSB - VISIBILITY IN STATUTE MILES
WCI - WIND CHILL INDEX
HX  - HEAT INDEX

  

Return to Home page


Western Regional Climate Center, wrcc@dri.edu